Lapse_Rate
1.5 1.2 0.9 1.2 2.1 2.9 3.5 3.9 4.3 5.4 6.4 5.4 5.3 5.4 6.6 6.5 6.2 4.6 4.2 4.3 4.2 4.7 5.3 5.8 6.3 6.6 6.7 7.1 7.3 7.5 7.6 7.9 8.2 8.4 8.2 8.5 9.4 9.5
0.5 0.5 1.4 1.7 2.4 2.6 3.2 4.5 4.8 5.0 5.7 5.4 4.7 4.5 6.1 6.3 6.5 4.7 4.3 4.3 4.6 4.7 5.2 5.5 5.8 6.2 6.6 7.1 7.5 7.5 7.6 7.8 8.4 8.7 9.1 9.5 9.5 9.5
0.5 1.2 1.9 2.0 2.8 3.3 3.9 4.2 4.5 4.9 5.4 6.3 4.5 4.4 4.2 4.0 5.5 5.6 5.3 4.4 4.4 4.8 5.0 5.4 5.3 5.6 6.2 6.7 7.4 7.6 7.5 7.8 8.3 8.6 9.2 9.5 9.5 9.5
1.2 1.8 2.6 3.3 3.5 4.4 4.5 4.6 5.5 5.8 5.7 5.5 5.1 4.3 4.4 5.2 5.9 5.5 6.2 5.7 4.9 4.9 5.1 5.8 5.4 5.8 7.0 6.3 7.0 7.2 7.1 7.4 7.7 8.2 8.7 8.8 8.9 9.2
2.4 2.7 3.5 3.9 4.3 4.7 5.1 5.4 5.4 6.1 5.4 5.3 5.8 6.1 4.4 3.1 3.4 3.4 4.0 4.8 5.2 5.8 5.8 5.5 6.3 7.3 6.1 6.6 7.2 6.8 7.2 7.2 7.1 7.6 8.0 8.2 8.5 8.6
2.7 3.6 4.2 4.6 5.1 5.4 5.6 5.5 5.8 5.6 4.8 4.7 4.9 4.5 3.6 3.9 3.9 5.1 5.4 3.2 4.8 6.3 6.4 6.8 6.7 6.6 7.1 7.5 8.1 8.0 7.4 7.3 7.5 7.9 8.1 8.3 8.1 8.1
3.7 4.4 4.8 5.1 5.2 4.9 5.4 5.7 4.2 4.0 4.5 4.5 4.8 4.4 3.8 3.1 3.8 4.7 4.5 5.6 3.8 2.9 3.1 3.5 5.0 5.9 6.9 6.7 7.8 8.3 7.5 7.7 8.0 8.2 8.6 8.6 8.6 8.7
4.2 4.7 4.7 4.3 3.9 3.4 3.6 3.9 3.5 3.4 3.9 4.7 5.1 5.6 4.8 4.6 3.9 5.2 5.9 4.4 5.2 3.6 3.6 5.0 4.9 5.1 6.1 6.0 7.3 7.9 7.8 8.0 8.3 8.5 8.6 8.6 8.7 8.9
4.0 3.4 4.1 3.7 1.9 2.0 2.2 2.5 2.6 3.4 2.8 3.2 4.3 4.4 4.9 5.7 6.1 6.1 6.0 5.5 6.2 5.8 4.8 4.6 3.6 4.6 4.2 5.9 7.1 7.6 7.9 8.2 8.4 8.3 8.4 8.6 8.8 8.7
1.6 1.6 1.5 1.6 1.9 2.0 1.2 0.8 1.0 1.0 1.6 2.5 1.9 2.4 3.4 4.5 5.5 6.1 6.4 6.1 6.1 6.2 4.4 5.9 2.6 3.6 3.2 5.0 6.2 7.0 7.5 8.2 8.4 8.3 8.4 8.8 8.6 8.5
1.6 1.7 1.4 1.2 2.5 2.6 1.3 0.9 0.5 1.3 3.0 3.8 4.4 4.8 5.0 5.5 6.1 6.3 6.3 7.8 7.7 7.6 3.7 5.9 3.2 2.7 3.6 3.5 5.2 6.3 7.9 8.1 7.9 7.9 8.4 8.4 8.5 8.6
1.2 1.3 1.8 1.7 2.1 2.4 1.4 1.3 1.7 2.1 2.7 3.3 3.8 4.0 4.8 5.2 6.1 5.8 6.3 7.5 7.5 7.4 4.3 5.6 4.2 4.4 5.4 3.1 3.2 5.3 6.4 7.1 7.9 7.8 7.9 8.5 8.5 7.8
0.8 0.7 0.7 2.1 2.7 2.9 3.2 2.3 3.4 3.5 3.5 3.4 4.1 4.6 4.7 4.8 5.5 5.9 6.8 6.6 6.7 7.5 6.0 5.8 4.9 3.6 4.4 3.8 3.1 4.2 5.1 5.6 6.2 6.5 7.2 7.6 7.8 7.9
0.9 0.9 1.0 2.6 3.0 3.3 3.1 4.1 4.0 3.1 2.4 2.5 3.0 3.6 3.9 4.0 4.4 4.4 4.5 6.4 6.1 6.4 6.6 5.2 4.5 3.8 4.2 3.3 4.1 3.7 3.1 4.3 4.4 3.7 5.7 6.7 7.3 7.1
1.4 1.7 2.5 2.9 3.1 3.3 4.3 4.3 3.5 2.5 2.0 2.4 3.1 3.4 3.7 3.8 4.2 4.1 3.9 5.5 6.3 6.9 5.9 5.6 4.2 4.4 4.2 3.8 3.8 3.8 4.7 4.6 3.5 3.2 3.1 3.3 3.2 4.6
1.8 1.9 1.7 2.4 2.9 3.6 4.3 4.1 3.7 3.4 3.2 3.5 3.6 3.4 3.6 3.4 3.4 4.0 3.3 3.5 6.5 7.0 4.6 4.9 4.3 5.1 4.1 5.0 4.9 5.2 4.3 5.0 3.0 3.3 3.3 1.9 4.2 4.9
1.1 1.2 2.6 2.9 3.2 3.7 3.9 3.8 3.7 3.6 3.6 3.4 3.3 3.2 3.2 3.3 3.0 3.8 3.1 2.8 4.9 5.9 4.3 4.7 4.6 5.4 5.6 5.9 4.5 5.6 5.2 4.0 3.4 3.3 4.5 3.1 2.7 3.4
2.6 2.1 1.3 0.6 2.2 3.5 3.5 3.7 3.7 3.4 4.0 4.1 3.7 3.4 3.4 3.1 3.1 2.9 2.7 3.6 6.3 5.7 5.6 5.0 5.4 5.2 5.4 5.4 6.5 5.4 3.5 3.8 3.6 5.1 4.8 3.3 2.6 1.8
3.0 2.7 0.4 1.1 2.1 4.4 4.3 4.2 3.9 4.0 4.5 4.2 3.8 3.2 3.3 3.4 2.9 2.7 2.9 2.1 6.4 5.5 5.4 5.1 5.9 5.6 6.0 4.8 5.8 6.7 4.8 4.2 3.9 3.6 4.2 3.6 2.2 3.8
4.4 3.9 3.7 3.8 4.4 4.8 4.8 4.3 3.7 2.7 2.7 3.5 2.7 2.6 2.7 2.9 2.6 2.5 2.8 1.3 6.1 6.0 5.5 5.8 6.1 5.9 4.7 4.2 4.2 3.4 6.3 2.6 2.9 2.1 3.0 2.8 4.1 5.7
4.8 4.8 4.5 4.8 4.5 4.2 2.0 0.4 -2.1 -1.3 1.3 0.5 1.5 2.7 1.9 2.3 2.3 2.8 2.8 2.3 3.2 5.9 6.2 5.8 5.3 5.6 4.8 4.1 3.4 1.8 2.3 5.9 4.8 4.0 3.6 2.6 3.5 3.7
4.7 5.3 5.4 4.9 2.9 2.6 0.4 -0.7 -1.5 -0.8 1.4 2.1 2.5 1.3 1.4 2.0 2.8 2.7 2.3 2.5 2.2 4.6 6.6 4.8 5.6 5.1 4.9 6.2 4.6 0.5 2.3 2.0 5.3 6.7 6.3 6.3 4.2 4.2
4.3 4.9 4.2 2.4 2.1 1.9 3.1 -0.1 0.6 -0.5 3.1 3.8 3.9 2.7 1.9 1.6 2.9 2.9 2.4 2.7 2.6 1.9 5.6 5.2 5.7 5.3 6.1 7.0 5.6 3.7 3.1 1.9 3.7 4.6 3.5 6.7 6.7 6.6
Wind_Speed
7 8 3 3 2 2 2 2 2 2 4 2 3 7 11 10 17 21 24 25 30 30 29 29 26 25 24 22 22 20 19 18 17 18 18 19 20 22
5 7 4 3 4 3 2 1 2 4 5 3 4 4 10 12 13 19 24 25 28 31 33 32 30 30 28 26 25 22 21 20 19 18 17 18 18 20
7 7 7 6 3 2 2 3 4 5 6 4 3 3 3 5 11 12 20 20 22 30 33 35 33 34 31 28 27 25 24 22 21 20 19 19 19 20
8 7 6 5 4 4 3 4 5 6 5 8 4 4 5 6 11 9 15 17 21 25 33 37 36 30 30 30 30 26 26 25 23 22 22 21 21 21
7 6 5 4 3 3 3 4 4 5 4 5 8 6 6 4 6 7 7 13 19 23 26 29 30 38 35 29 27 26 27 24 23 25 25 23 22 23
6 5 5 4 4 4 4 4 4 6 6 7 7 6 4 5 4 6 8 4 8 16 20 24 24 32 27 20 25 27 22 22 23 25 23 23 23 25
5 3 3 4 7 6 3 5 4 5 6 6 8 6 4 2 5 4 6 8 5 4 4 5 6 5 9 18 24 24 21 23 23 20 16 16 19 22
4 3 1 5 6 12 11 9 6 4 5 5 7 10 9 6 4 7 9 4 7 7 5 5 9 7 14 22 22 19 19 20 18 16 15 18 18 20
4 4 5 5 7 5 7 6 5 7 3 5 8 8 10 9 9 11 11 9 11 8 5 5 4 9 14 15 19 20 19 18 15 15 16 17 18 20
6 5 5 5 5 5 4 5 5 5 5 4 6 8 9 12 10 12 14 14 11 10 6 9 4 6 5 14 16 16 15 15 11 10 12 16 18 21
5 5 5 5 9 11 4 4 5 6 10 13 17 22 25 26 23 9 11 10 12 10 5 8 5 3 4 3 13 14 14 8 6 7 9 11 15 17
4 4 8 5 7 9 3 4 5 7 8 9 8 12 17 18 22 13 9 10 9 11 4 8 5 3 1 3 3 7 7 7 7 10 11 14 13 11
3 2 1 6 8 7 7 3 7 9 9 8 8 8 7 7 7 12 12 9 8 11 5 6 4 3 3 2 1 3 6 4 7 10 13 12 14 12
2 1 2 7 7 7 5 11 13 8 6 7 7 8 9 10 10 11 19 19 17 12 11 11 3 4 3 2 2 1 2 7 7 2 9 11 12 11
1 2 5 6 7 4 9 10 6 4 5 6 8 8 9 10 16 13 17 21 18 17 16 14 4 4 3 3 3 3 2 2 3 2 2 2 2 5
1 2 3 3 3 2 3 4 4 5 5 6 8 9 9 9 10 9 11 11 10 8 12 15 12 5 2 3 3 2 3 2 1 2 2 2 5 9
0 1 2 3 3 3 3 4 4 5 6 6 7 9 10 10 10 10 11 11 11 6 3 4 8 8 4 5 2 4 3 3 3 3 2 2 3 4
2 2 2 1 2 3 3 4 4 5 6 7 7 9 9 10 11 12 11 11 4 0 2 3 4 3 1 3 9 3 2 2 2 3 3 2 2 3
2 2 1 1 2 4 4 4 5 5 7 7 7 8 9 10 12 11 11 13 5 2 2 2 4 3 4 3 1 15 4 3 2 1 2 3 3 4
2 2 2 2 3 4 4 5 4 4 5 6 6 7 8 9 10 11 11 12 7 3 3 3 4 5 5 5 3 3 13 3 3 2 2 1 3 10
2 3 2 2 2 3 3 3 2 3 5 4 5 6 7 9 9 9 11 16 17 4 5 7 7 5 3 4 2 2 3 11 8 4 2 2 1 2
1 1 1 2 2 3 3 2 3 3 5 4 6 3 6 8 9 10 10 11 11 9 5 2 4 4 3 4 3 3 2 3 4 14 11 9 4 2
1 1 2 2 3 3 2 2 4 4 6 5 7 7 7 8 8 9 9 10 10 10 4 3 4 3 4 3 4 3 2 2 1 1 3 13 19 19
Wind_Direction
164 159 151 136 123 150 175 187 175 245 255 228 248 244 244 247 244 218 217 220 216 216 217 220 223 226 232 237 244 250 260 268 279 289 291 293 295 293
149 141 127 136 162 164 163 256 231 249 263 196 239 245 269 260 252 224 223 229 226 225 225 226 225 226 229 233 240 244 250 256 269 277 282 286 292 296
141 154 163 158 156 171 190 216 237 236 256 261 227 252 263 272 271 244 241 236 238 232 230 230 229 228 229 230 235 237 242 249 259 265 275 278 280 289
159 158 168 159 178 212 202 233 243 243 254 272 227 235 221 251 253 259 259 246 237 239 234 234 232 234 238 231 234 233 236 243 252 258 267 272 271 274
162 159 159 162 200 224 234 243 245 264 262 265 276 256 252 246 261 259 253 260 249 245 243 242 233 236 233 232 236 233 237 244 247 253 260 266 266 269
148 169 173 186 215 236 248 249 259 271 278 275 274 267 236 236 232 264 274 248 262 256 245 243 240 238 229 229 248 244 241 244 249 255 261 265 258 257
158 170 199 216 232 235 255 283 295 273 280 286 286 291 278 286 251 265 252 268 265 231 235 232 187 216 249 233 241 241 237 241 249 254 249 259 262 259
154 191 331 7 37 63 52 36 17 334 312 303 300 291 285 279 269 268 270 264 277 216 213 243 202 205 225 236 222 227 245 249 243 234 250 258 262 266
91 64 84 54 51 39 20 6 348 331 263 263 282 283 295 298 303 292 276 259 261 258 211 238 201 234 220 215 222 240 249 251 227 246 254 258 261 265
90 85 87 79 51 32 16 354 331 313 299 297 283 288 281 290 286 284 284 282 280 267 203 248 186 227 195 222 232 242 250 217 245 259 260 267 270 271
88 76 69 47 17 5 358 316 305 299 308 305 297 295 293 289 284 288 291 287 280 264 208 234 213 209 192 217 235 240 214 221 233 271 278 283 293 290
73 62 40 23 351 338 331 303 312 323 317 303 290 286 287 284 285 271 272 274 284 277 221 222 190 160 230 230 196 189 183 222 276 287 279 291 292 299
82 52 347 335 335 342 350 346 341 339 331 329 325 317 307 304 300 287 271 260 271 276 241 188 209 145 187 166 226 187 183 235 254 266 283 289 299 292
136 147 289 330 350 5 25 353 350 349 341 335 328 323 322 316 307 304 299 282 252 255 263 189 190 179 163 140 177 241 238 239 229 235 272 290 292 292
129 325 336 358 16 37 6 359 352 346 336 328 321 315 311 306 304 304 304 297 263 252 249 201 186 186 156 165 174 187 171 252 211 215 247 248 250 285
326 319 328 352 51 28 351 2 1 342 332 322 318 311 306 308 309 310 307 302 276 269 220 207 198 163 148 183 164 189 185 214 217 221 238 261 280 275
214 36 60 46 28 8 10 2 351 342 332 327 319 314 312 312 316 312 308 294 275 242 191 192 203 187 181 164 173 214 218 214 220 250 215 261 267 253
71 72 68 34 23 2 359 348 340 335 332 324 318 316 314 318 317 320 316 299 270 264 170 164 171 152 134 274 212 209 188 204 223 233 215 190 270 276
85 84 84 25 342 357 345 339 331 333 328 318 318 314 315 315 323 324 320 319 244 182 172 157 179 169 185 207 261 208 195 202 190 245 213 202 226 281
56 67 28 15 7 346 333 328 325 328 323 309 314 310 318 318 321 322 327 323 282 188 185 188 189 188 184 202 194 246 216 174 173 226 257 274 253 282
43 15 7 32 336 321 299 296 289 294 303 288 299 307 323 316 316 318 317 316 317 184 210 213 212 181 113 97 60 313 286 230 202 186 199 147 248 309
12 17 18 336 298 287 287 288 312 297 299 290 305 296 312 310 312 319 319 318 316 309 232 169 147 150 156 173 183 193 269 314 269 229 221 206 170 235
39 15 323 294 288 287 298 289 287 284 290 303 310 308 309 309 311 313 307 307 311 315 280 179 170 175 180 174 160 179 200 250 242 312 295 236 235 240